Date String (YYYY-MM-DD hh:mm:ss) UTC,Instrument flags,Ambient pressure (hPa),Sample flow (lpm),Bypass flow (lpm),Sample temperature (°C),Ambient temperature (°C),ASC tube jacket temperature (°C),LED temperature (°C),Box temperature (°C),Sample RH (%),Span deviation,Mass concentration (μg/m³),Mass concentration (μg/m³),Mass concentration (μg/m³)
DateTimeUTC,F1_M11,P_M11,Q1_M11,Q2_M11,T1_M11,T2_M11,T3_M11,T4_M11,T5_M11,U1_M11,ZSPAN_M11,X2_M11,X0_M11,X1_M11
2022-02-03 19:00:00,,0827.4,5.00,0.00,23.0,22.2,00.0,32.0,24.8,04.4,0001.6,0009.38,0012.53,0008.97
2022-02-03 19:01:00,,0827.3,4.99,0.00,23.0,22.1,00.0,32.0,24.8,04.3,0002.0,0009.38,0012.79,0008.97
2022-02-03 19:02:00,,0827.2,5.03,0.00,23.0,22.1,00.0,31.9,24.7,04.4,0001.7,0009.42,0012.83,0009.00
2022-02-03 19:03:00,,0827.2,4.99,0.00,23.0,22.1,00.0,31.9,24.7,04.4,0001.9,0009.46,0012.90,0009.04
2022-02-03 19:04:00,,0827.7,5.01,0.00,22.9,22.1,00.0,31.9,24.7,04.4,0002.0,0009.51,0013.00,0009.07
2022-02-03 19:05:00,,0827.7,4.99,0.00,22.9,22.1,00.0,31.9,24.7,04.4,0002.2,0009.53,0012.98,0009.12
2022-02-03 19:06:00,,0827.3,4.99,0.00,22.9,22.1,00.0,31.9,24.7,04.4,0002.2,0009.52,0012.92,0009.14
2022-02-03 19:07:00,,0827.3,5.02,0.00,22.9,22.1,00.0,31.9,24.7,04.4,0002.0,0009.56,0012.99,0009.16
2022-02-03 19:08:00,,0827.2,4.98,0.00,22.9,22.1,00.0,31.9,24.7,04.4,0001.9,0009.64,0013.09,0009.21
2022-02-03 19:09:00,,0827.5,5.00,0.00,22.9,22.1,00.0,31.9,24.7,04.4,0001.7,0009.67,0013.24,0009.24
2022-02-03 19:10:00,,0827.7,4.99,0.00,22.9,22.1,00.0,31.9,24.7,04.4,0002.2,0009.70,0013.24,0009.26
2022-02-03 19:11:00,,0827.7,5.01,0.00,22.9,22.1,00.0,31.9,24.6,04.5,0002.1,0009.72,0013.06,0009.28
2022-02-03 19:12:00,,0827.6,5.00,0.00,22.9,22.1,00.0,31.9,24.7,04.4,0001.8,0009.74,0012.86,0009.30
2022-02-03 19:13:00,,0827.4,5.00,0.00,22.9,22.2,00.0,31.9,24.7,04.5,0002.1,0009.71,0012.80,0009.28
2022-02-03 19:14:00,,0827.2,5.01,0.00,22.9,22.2,00.0,31.9,24.7,04.4,0002.3,0009.64,0012.67,0009.23
2022-02-03 19:15:00,,0827.2,5.00,0.00,23.0,22.2,00.0,31.9,24.8,04.4,0002.0,0009.58,0012.55,0009.19
2022-02-03 19:16:00,,0827.2,5.01,0.00,23.0,22.3,00.0,31.9,24.8,04.4,0001.4,0009.56,0012.55,0009.15
2022-02-03 19:17:00,,0827.3,4.99,0.00,23.0,22.3,00.0,31.9,24.8,04.4,0000.9,0009.55,0012.60,0009.12
2022-02-03 19:18:00,,0827.2,5.01,0.00,23.0,22.2,00.0,31.9,24.8,04.4,0001.0,0009.52,0012.61,0009.08
2022-02-03 19:19:00,,0827.4,4.99,0.00,23.0,22.2,00.0,31.9,24.8,04.4,0000.9,0009.48,0012.77,0009.05
2022-02-03 19:20:00,,0827.5,5.00,0.00,23.0,22.2,00.0,31.9,24.8,04.4,0001.0,0009.45,0012.63,0009.03
2022-02-03 19:21:00,,0827.6,5.02,0.00,23.0,22.2,00.0,31.9,24.8,04.4,0000.6,0009.43,0012.76,0009.00
2022-02-03 19:22:00,,0827.8,4.99,0.00,23.0,22.2,00.0,31.9,24.8,04.5,0000.9,0009.40,0013.06,0008.97
2022-02-03 19:23:00,,0827.7,5.00,0.00,23.0,22.3,00.0,31.9,24.8,04.5,0000.9,0009.37,0013.00,0008.94
2022-02-03 19:24:00,,0827.3,5.01,0.00,23.0,22.3,00.0,31.9,24.8,04.4,0000.5,0009.34,0012.98,0008.91
2022-02-03 19:25:00,,0827.2,4.99,0.00,23.1,22.3,00.0,32.0,24.8,04.4,0000.5,0009.36,0013.07,0008.91
2022-02-03 19:26:00,,0827.2,5.01,0.00,23.1,22.3,00.0,32.0,24.9,04.4,0000.4,0009.37,0013.13,0008.90
2022-02-03 19:27:00,,0827.2,4.99,0.00,23.1,22.3,00.0,32.0,24.9,04.4,0000.9,0009.35,0013.11,0008.88
2022-02-03 19:28:00,,0827.2,5.00,0.00,23.1,22.3,00.0,32.0,24.9,04.4,0000.9,0009.29,0012.98,0008.84
2022-02-03 19:29:00,,0827.2,5.02,0.00,23.1,22.4,00.0,32.0,24.9,04.4,0001.2,0009.23,0012.85,0008.78
2022-02-03 19:30:00,,0827.1,4.99,0.00,23.1,22.4,00.0,32.0,24.9,04.4,0001.0,0009.17,0012.65,0008.72
2022-02-03 19:31:00,,0827.1,4.99,0.00,23.1,22.4,00.0,32.0,24.9,04.4,0000.7,0009.12,0012.62,0008.65
2022-02-03 19:32:00,,0827.2,5.01,0.00,23.1,22.4,00.0,32.0,24.9,04.4,0000.5,0009.07,0012.41,0008.60
2022-02-03 19:33:00,,0827.3,5.00,0.00,23.1,22.4,00.0,32.0,25.0,04.3,0000.3,0009.01,0012.09,0008.53
2022-02-03 19:34:00,,0827.4,5.00,0.00,23.1,22.4,00.0,32.0,25.0,04.4,0000.2,0008.97,0012.05,0008.49
2022-02-03 19:35:00,,0827.8,5.00,0.00,23.2,22.4,00.0,32.0,25.0,04.4,-000.0,0008.92,0011.99,0008.45
2022-02-03 19:36:00,,0827.3,4.99,0.00,23.2,22.4,00.0,32.1,25.0,04.4,-000.3,0008.88,0012.10,0008.42
2022-02-03 19:37:00,,0827.2,5.02,0.00,23.2,22.4,00.0,32.1,25.0,04.6,-000.5,0008.85,0012.19,0008.41
2022-02-03 19:38:00,,0827.2,4.98,0.00,23.2,22.4,00.0,32.1,25.0,04.6,-000.4,0008.83,0012.14,0008.39
2022-02-03 19:39:00,,0827.1,5.01,0.00,23.2,22.4,00.0,32.1,25.0,04.5,0000.0,0008.85,0012.21,0008.39
2022-02-03 19:40:00,,0827.1,4.99,0.00,23.2,22.4,00.0,32.1,25.0,04.5,0000.0,0008.85,0012.22,0008.39
2022-02-03 19:41:00,,0827.2,4.99,0.00,23.2,22.4,00.0,32.1,25.0,04.5,0000.6,0008.84,0012.10,0008.43
2022-02-03 19:42:00,,0827.1,5.02,0.00,23.2,22.5,00.0,32.1,25.0,04.5,0001.0,0008.86,0012.11,0008.47
2022-02-03 19:43:00,,0827.1,4.99,0.00,23.2,22.5,00.0,32.1,25.0,04.5,0001.0,0008.88,0012.10,0008.50
2022-02-03 19:44:00,,0827.1,5.01,0.00,23.2,22.5,00.0,32.1,25.0,04.5,0001.1,0008.94,0012.18,0008.55
2022-02-03 19:45:00,,0827.1,4.99,0.00,23.2,22.5,00.0,32.1,25.0,04.5,0001.3,0008.93,0012.15,0008.54
2022-02-03 19:46:00,,0827.2,5.01,0.00,23.3,22.5,00.0,32.1,25.0,04.5,0001.6,0008.92,0012.20,0008.53
2022-02-03 19:47:00,,0827.1,5.00,0.00,23.3,22.5,00.0,32.1,25.1,04.5,0001.6,0008.91,0012.05,0008.52
2022-02-03 19:48:00,,0827.1,5.01,0.00,23.3,22.5,00.0,32.2,25.1,04.6,0002.2,0008.89,0011.84,0008.49
2022-02-03 19:49:00,,0827.2,4.99,0.00,23.3,22.5,00.0,32.2,25.1,04.6,0002.1,0008.94,0012.13,0008.50
2022-02-03 19:50:00,,0827.1,4.99,0.00,23.3,22.5,00.0,32.2,25.1,04.5,0002.2,0008.94,0012.49,0008.53
2022-02-03 19:51:00,,0827.1,5.00,0.00,23.3,22.5,00.0,32.2,25.1,04.6,0001.7,0008.98,0012.50,0008.57
2022-02-03 19:52:00,,0827.1,5.01,0.00,23.3,22.5,00.0,32.2,25.1,04.5,0001.7,0009.02,0012.60,0008.59
2022-02-03 19:53:00,,0827.1,4.98,0.00,23.3,22.5,00.0,32.2,25.1,04.5,0001.9,0009.05,0012.62,0008.60
2022-02-03 19:54:00,,0827.1,5.01,0.00,23.3,22.5,00.0,32.2,25.1,04.6,0001.9,0009.05,0012.62,0008.60
2022-02-03 19:55:00,,0827.1,4.99,0.00,23.3,22.5,00.0,32.2,25.1,04.5,0002.0,0009.04,0012.57,0008.63
2022-02-03 19:56:00,,0827.0,5.00,0.00,23.3,22.5,00.0,32.2,25.1,04.6,0002.0,0009.13,0012.72,0008.69
2022-02-03 19:57:00,,0827.0,5.01,0.00,23.3,22.5,00.0,32.2,25.1,04.6,0002.2,0009.18,0012.71,0008.75
2022-02-03 19:58:00,,0827.0,4.99,0.00,23.3,22.5,00.0,32.2,25.1,04.6,0002.6,0009.21,0012.74,0008.80
2022-02-03 19:59:00,,0827.0,5.01,0.00,23.3,22.5,00.0,32.2,25.1,04.7,0002.0,0009.27,0013.04,0008.85
